Weather Roundup
Issued by NWS Springfield, MO

Home | Current Version | Previous Version | Text Only | Print | Product List | Glossary On
Versions: 1 2 3 4 5 6 7 8 9 10 11 12 13 14 15 16 17 18 19 20 21 22 23 24 25 26 27 28 29 30 31 32 33 34 35 36 37 38 39 40 41 42 43 44 45 46 47 48 49 50
000
NZUS99 KSGF 281807
HRRSGF

HOURLY WEATHER
NATIONAL WEATHER SERVICE SPRINGFIELD MO
100 PM CDT SAT MAR 28 2015

......SGF CWA......

CITY           SKY/WX    TMP DP  RH WIND       PRES   REMARKS
SPRINGFIELD    CLOUDY    41  27  57 SE20      30.18F
6HR MIN TEMP:  39; 6HR MAX TEMP:  41; 6HR PCP: TRACE;

JOPLIN         SUNNY     55  34  45 E14       30.12S
6HR MIN TEMP:  41; 6HR MAX TEMP:  55;

WEST PLAINS    CLOUDY    33  30  88 SE7       30.27F WCI  27
6HR MIN TEMP:  31; 6HR MAX TEMP:  34; 6HR PCP:  0.07;

ROLLA          CLOUDY    40  28  62 E13       30.24F WCI  32
6HR MIN TEMP:  31; 6HR MAX TEMP:  40; 6HR PCP: TRACE;

OSAGE BEACH    CLOUDY    41  30  65 SE10      30.24F
BRANSON        CLOUDY    43  32  65 E13       30.20F

......SURROUNDING SGF CWA......

CITY           SKY/WX    TMP DP  RH WIND       PRES   REMARKS
CHANUTE        SUNNY     57  38  48 SE9       30.10S
PARSONS        SUNNY     59  40  49 SE10      30.09F
COFFEYVILLE    SUNNY     60  40  47 MISG      30.07F
EMPORIA        SUNNY     55  33  43 SE12      30.08S
GROVE OK       SUNNY     61  41  48 E6        30.11F
ROGERS AR      SUNNY     53  38  56 E14       30.12F
SILOAM SPRINGS SUNNY     57  39  51 S6        30.12F
HARRISON AR    CLOUDY    43  33  68 E17       30.19F
NEAR YELLVILLE CLOUDY    39  28  65 E8G20     30.25S WCI  34

......KANSAS AND MISSOURI......

CITY           SKY/WX    TMP DP  RH WIND       PRES   REMARKS
KANSAS CTY INT CLOUDY    48  31  51 SE12G23   30.17F
DOWNTOWN KC    CLOUDY    48  29  47 SE13      30.17F
COLUMBIA       MOSUNNY   43  26  51 SE14G20   30.25F
SEDALIA        MOSUNNY   46  31  55 E10       30.22F
ST JOSEPH      SUNNY     48  30  49 SE10G21   30.18F
ST LOUIS       SUNNY     40  16  37 VRB3      30.33S
SPIRIT OF STL  SUNNY     43  18  36 VRB5      30.31F
KIRKSVILLE     SUNNY     43  20  39 SE9G18    30.26F
WICHITA        SUNNY     63  39  41 E7        30.04S
TOPEKA         SUNNY     52  30  43 SE14G21   30.13F
OLATHE         PTSUNNY   47  30  51 E16G24    30.15F

......TENNESSEE......

CITY           SKY/WX    TMP DP  RH WIND       PRES   REMARKS
MEMPHIS        FLURRIES  43  23  45 NE5       30.32F
NASHVILLE      SUNNY     44  11  26 VRB7      30.28S

......ARKANSAS.......

CITY           SKY/WX    TMP DP  RH WIND       PRES   REMARKS
FAYETTEVILLE   SUNNY     56  42  59 S3        30.12F
FT SMITH       SUNNY     58  41  53 E15       30.12F
LITTLE ROCK    PTSUNNY   46  35  65 E13       30.27S

......OKLAHOMA.......

CITY           SKY/WX    TMP DP  RH WIND       PRES   REMARKS
TULSA          MOSUNNY   63  40  42 S9G21     30.05F
PONCA CITY     SUNNY     67  42  40 CALM      30.02F
MCALESTER      MOSUNNY   65  37  35 S8        30.07F
OKLAHOMA CITY  MOSUNNY   68  44  42 VRB6      30.02F

......IOWA............

CITY           SKY/WX    TMP DP  RH WIND       PRES   REMARKS
DES MOINES     MOSUNNY   46  12  25 S13       30.22F
QUAD CITIES    SUNNY     38  10  31 SE6       30.32F WCI  33

......ILLINOIS........

CITY           SKY/WX    TMP DP  RH WIND       PRES   REMARKS
QUINCY         SUNNY     39  16  39 SE10      30.30F WCI  32
CHICAGO        MOSUNNY   33   9  36 NE8       30.33F WCI  26




USA.gov is the U.S. government's official web portal to all federal, state and local government web resources and services.